Aspen, CO

9:03 AM MDT on April 26, 2017 (GMT -0600)
Aspen-Pitkin County / Sardy Field

Weather History for KASE - March, 2014

Change the Weather History Date:

Tuesday, March 4, 2014

  Actual Average Record
Temperature  
Mean Temperature 34 °F 27 °F  
Max Temperature 47 °F 39 °F 62 °F (1987)
Min Temperature 21 °F 15 °F -6 °F (2002)
Degree Days  
Heating Degree Days 31 38  
Month to date heating degree days 123 154  
Since 1 July heating degree days 6254 6473  
Cooling Degree Days 0 0  
Month to date cooling degree days 0 0  
Year to date cooling degree days 0 0  
Moisture  
Dew Point 24 °F    
Average Humidity 63    
Maximum Humidity 92    
Minimum Humidity 34    
Precipitation  
Precipitation 0.06 in 0.03 in 0.65 in (1981)
Month to date precipitation 0.54 0.15  
Year to date precipitation 3.32 2.39  
Sea Level Pressure  
Sea Level Pressure 29.95 in    
Wind  
Wind Speed 7 mph (NW)    
Max Wind Speed 16 mph    
Max Gust Speed 26 mph    
Visibility 7 miles    
Events Snow    
T = Trace of Precipitation, MM = Missing Value Source: NWS Daily Summary

Daily Weather History Graph

Daily Weather History Graph

Search for Another Location

Airport or City:

Trip Planner

Search our weather history database for the weather conditions in past years. The results will help you decide how hot, cold, wet, or windy it might be!

Date:

Astronomy

Mar. 04, 2014 Rise Set
Actual Time 6:35 AM MST 6:03 PM MST
Civil Twilight 6:08 AM MST 6:30 PM MST
Nautical Twilight 5:37 AM MST 7:01 PM MST
Astronomical Twilight 5:06 AM MST 7:32 PM MST
Moon 8:25 AM MST (3/4) 10:11 PM MST (3/4)
Length of Visible Light 12h 21m
Length of Day
11h 27m
Waxing Crescent, 15% of the Moon is Illuminated
Mar 4
Waxing Crescent
Mar 8
First Quarter
Mar 16
Full
Mar 23
Last Quarter
Mar 30
New

Hourly Weather History & Observations

Time (MST) Temp. Windchill Dew Point Humidity Pressure Visibility Wind Dir Wind Speed Gust Speed Precip Events Conditions
12:53 AM 24.1 °F 13.7 °F 15.1 °F 69% 30.01 in 10.0 mi SSW 10.4 mph - N/A   Clear
1:53 AM 24.1 °F 15.2 °F 15.1 °F 69% 30.01 in 10.0 mi SSW 8.1 mph - N/A   Clear
2:53 AM 24.1 °F 13.7 °F 14.0 °F 65% 29.98 in 10.0 mi SSW 10.4 mph - N/A   Clear
3:53 AM 24.1 °F 15.2 °F 14.0 °F 65% 29.96 in 10.0 mi SSW 8.1 mph - N/A   Clear
4:53 AM 24.1 °F 15.2 °F 14.0 °F 65% 29.96 in 10.0 mi SSW 8.1 mph - N/A   Clear
5:53 AM 21.9 °F 13.4 °F 14.0 °F 72% 29.99 in 10.0 mi SSW 6.9 mph - N/A   Clear
6:53 AM 23.0 °F 13.1 °F 12.9 °F 65% 29.98 in 10.0 mi SSW 9.2 mph - N/A   Clear
7:53 AM 25.0 °F 18.1 °F 15.1 °F 66% 29.97 in 10.0 mi SSW 5.8 mph - N/A   Clear
8:53 AM 30.9 °F 26.2 °F 15.1 °F 52% 29.93 in 10.0 mi SSW 4.6 mph - N/A   Clear
9:53 AM 37.9 °F - 12.9 °F 36% 29.87 in 10.0 mi Calm Calm - N/A   Clear
10:53 AM 41.0 °F 38.0 °F 16.0 °F 36% 29.85 in 10.0 mi NNW 4.6 mph - N/A   Clear
11:53 AM 45.0 °F 42.6 °F 19.9 °F 37% 29.83 in 10.0 mi North 4.6 mph - N/A   Clear
12:53 PM 46.0 °F 43.1 °F 19.0 °F 34% 29.80 in 10.0 mi NNE 5.8 mph - N/A   Partly Cloudy
1:53 PM 45.0 °F 41.2 °F 21.0 °F 39% 29.79 in 10.0 mi NNW 6.9 mph - N/A   Scattered Clouds
2:53 PM 46.0 °F 41.9 °F 19.9 °F 35% 29.78 in 10.0 mi NNW 8.1 mph - N/A   Scattered Clouds
3:53 PM 45.0 °F 40.6 °F 21.9 °F 40% 29.76 in 10.0 mi North 8.1 mph - N/A   Mostly Cloudy
4:53 PM 39.9 °F 33.9 °F 26.1 °F 58% 29.82 in 10.0 mi North 9.2 mph - N/A   Overcast
5:53 PM 36.0 °F 33.3 °F 28.9 °F 76% 29.87 in 10.0 mi Variable 3.5 mph - 0.00 in   Overcast
6:53 PM 35.1 °F 32.2 °F 28.9 °F 78% 29.88 in 10.0 mi SSW 3.5 mph - N/A   Overcast
7:27 PM 33.1 °F 24.4 °F 30.0 °F 89% 29.97 in 5.0 mi North 11.5 mph 21.9 mph 0.00 in Snow Light Snow
7:29 PM 33.1 °F 24.4 °F 30.0 °F 89% 29.97 in 2.5 mi North 11.5 mph - 0.00 in Snow Light Snow
7:35 PM 33.1 °F 26.9 °F 30.9 °F 92% 29.97 in 0.8 mi North 6.9 mph - 0.01 in Snow Light Snow
7:53 PM 33.1 °F 30.0 °F 32.0 °F 96% 29.93 in 0.8 mi Variable 3.5 mph - 0.04 in Snow Light Snow
8:01 PM 32.0 °F - 30.9 °F 96% 29.98 in 1.2 mi Calm Calm - 0.00 in Snow Light Snow
8:53 PM 32.0 °F 28.7 °F 30.9 °F 96% 29.92 in 2.0 mi NNW 3.5 mph - 0.01 in Snow Light Snow
8:57 PM 33.1 °F 28.7 °F 30.9 °F 92% 30.00 in 1.8 mi NNW 4.6 mph - 0.00 in Snow Light Snow
9:17 PM 32.0 °F 25.6 °F 30.9 °F 96% 30.01 in 2.0 mi North 6.9 mph - 0.00 in Snow Light Snow
9:25 PM 32.0 °F 26.4 °F 30.9 °F 96% 30.01 in 1.8 mi North 5.8 mph - 0.00 in Snow Light Snow
9:35 PM 32.0 °F 23.6 °F 30.0 °F 92% 30.02 in 2.5 mi NNW 10.4 mph - 0.00 in Snow Light Snow
9:53 PM 33.1 °F 23.9 °F 28.0 °F 82% 29.91 in 2.5 mi West 12.7 mph 24.2 mph 0.00 in Snow Light Snow
10:00 PM 33.1 °F 27.7 °F 28.0 °F 82% 30.04 in 3.0 mi WNW 5.8 mph - 0.00 in Snow Light Snow
10:12 PM 33.1 °F 26.1 °F 27.0 °F 78% 30.04 in 9.0 mi West 8.1 mph - 0.00 in   Overcast
10:38 PM 33.1 °F 26.1 °F 27.0 °F 78% 30.05 in 10.0 mi North 8.1 mph - 0.00 in   Overcast
10:45 PM 32.0 °F 27.5 °F 27.0 °F 82% 30.06 in 10.0 mi NE 4.6 mph - 0.00 in   Overcast
10:53 PM 32.0 °F 25.6 °F 28.0 °F 85% 29.94 in 10.0 mi North 6.9 mph - 0.00 in   Overcast
11:30 PM 32.0 °F 23.0 °F 28.9 °F 88% 30.08 in 2.0 mi NNW 11.5 mph - 0.00 in Snow Light Snow
11:35 PM 32.0 °F 24.2 °F 28.9 °F 88% 30.08 in 1.2 mi NNW 9.2 mph - 0.00 in Snow Light Snow
11:50 PM 30.2 °F 23.4 °F 28.4 °F 93% 30.08 in 2.0 mi Variable 6.9 mph - 0.01 in Snow Light Snow
11:53 PM 32.0 °F 23.6 °F 27.0 °F 82% 29.94 in 7.0 mi WNW 10.4 mph - 0.01 in Snow Light Snow